This is the latest recevied weather packets stored in our database for station/object W4NDF-13. If no packets are shown the sender has not sent any weather packets the latest 1 day(s).
| Time | Temp. | Humidity | Pressure | Rain* | Wind** | Luminosity | Snow |
|---|---|---|---|---|---|---|---|
| 1778029285 | 25° C | 82% | 1012.5 hPa | 0 mm | 2.24 m/s, 218° | 0 W/m² | - |
| 1778028982 | 25° C | 82% | 1012.9 hPa | 0 mm | 2.24 m/s, 139° | 0 W/m² | - |
| 1778028678 | 25° C | 82% | 1012.8 hPa | 0 mm | 2.68 m/s, 199° | 1 W/m² | - |
| 1778028375 | 25° C | 82% | 1013 hPa | 0 mm | 0.89 m/s, 180° | 1 W/m² | - |
| 1778028072 | 25° C | 81% | 1013.2 hPa | 0 mm | 1.79 m/s, 211° | 2 W/m² | - |
| 1778027768 | 25° C | 80% | 1013 hPa | 0 mm | 2.24 m/s, 196° | 4 W/m² | - |
| 1778027464 | 25° C | 80% | 1013.2 hPa | 0 mm | 2.24 m/s, 217° | 7 W/m² | - |
| 1778027160 | 25° C | 80% | 1013.2 hPa | 0 mm | 3.13 m/s, 151° | 14 W/m² | - |
| 1778026856 | 25° C | 79% | 1013.2 hPa | 0 mm | 1.79 m/s, 249° | 20 W/m² | - |
| 1778026553 | 25° C | 79% | 1012.9 hPa | 0 mm | 2.68 m/s, 163° | 25 W/m² | - |
| 1778026250 | 25° C | 79% | 1013.1 hPa | 0 mm | 2.68 m/s, 217° | 30 W/m² | - |
| 1778025947 | 25.56° C | 79% | 1013 hPa | 0 mm | 2.68 m/s, 197° | 34 W/m² | - |
| 1778025645 | 25.56° C | 78% | 1013.1 hPa | 0 mm | 3.13 m/s, 198° | 42 W/m² | - |
| 1778025343 | 25.56° C | 79% | 1012.8 hPa | 0 mm | 4.02 m/s, 213° | 40 W/m² | - |
| 1778025039 | 25.56° C | 79% | 1013 hPa | 0 mm | 3.13 m/s, 140° | 51 W/m² | - |
| 1778024736 | 25.56° C | 78% | 1012.8 hPa | 0 mm | 2.24 m/s, 196° | 64 W/m² | - |
| 1778024433 | 25.56° C | 77% | 1012.8 hPa | 0 mm | 2.24 m/s, 186° | 69 W/m² | - |
| 1778024130 | 25.56° C | 76% | 1012.9 hPa | 0 mm | 3.13 m/s, 199° | 77 W/m² | - |
| 1778023828 | 25.56° C | 76% | 1013 hPa | 0 mm | 2.24 m/s, 155° | 54 W/m² | - |
| 1778023526 | 25.56° C | 76% | 1012.9 hPa | 0 mm | 4.02 m/s, 230° | 46 W/m² | - |
| 1778023223 | 25.56° C | 76% | 1012.8 hPa | 0 mm | 4.02 m/s, 192° | 39 W/m² | - |
| 1778022920 | 25.56° C | 76% | 1012.9 hPa | 0 mm | 1.79 m/s, 229° | 30 W/m² | - |
| 1778022619 | 26.11° C | 76% | 1012.8 hPa | 0 mm | 3.58 m/s, 197° | 37 W/m² | - |
| 1778022315 | 26.11° C | 75% | 1012.9 hPa | 0 mm | 3.58 m/s, 216° | 65 W/m² | - |
| 1778022012 | 26.11° C | 76% | 1012.7 hPa | 0 mm | 1.79 m/s, 195° | 99 W/m² | - |
* Rain latest hour (hover to see other rain measurements)
** Current wind speed in m/s (hover to see current wind gust speed)